Flag for Paraguay Weather past 2 weeks in Ciudad del Este, Paraguay

Now
59 °F

Light rain. Partly cloudy.


Feels Like: 58 °F
Forecast: 46 / 62 °F
Wind: 6 mph from Southwest

Location: Foz Do Iguacu Aeroporto

Current Time: Jul 24, 2014 at 3:28:59 AM

Latest Report: Jul 24, 2014 at 3:00 AM


Visibility: 5 mi

Pressure: N/A

Humidity: 100%

Dew point: 59 °F

Location of Ciudad del EsteLocation

Historic Weather in Ciudad del Este — Graph

°F

Ciudad del Este temperature yesterday

Maximum temperature yesterday: 73 °F (at 12:00 AM)
Minimum temperature yesterday: 61 °F (at 11:00 PM)
Average temperature yesterday: 68 °F

Past Weeks' High & Low Weather Summary

 TemperatureHumidityPressure
High82 °F (Jul 15, 2:00 PM)100% (Jul 9, 1:00 AM)30.33 "Hg (Jul 9, 1:00 AM)
Low41 °F (Jul 19, 7:00 AM)36% (Jul 21, 2:00 PM)29.65 "Hg (Jul 23, 4:00 PM)
Average64 °F81%30.10 "Hg
* Reported Jul 9 1:00 AM — Jul 24 1:00 AM, Ciudad del Este, Weather by CustomWeather, © 2014

Note: Actual official high and low records may vary slightly from our data, if they occured in-between our weather recording intervals... More about our weather records

Advertising

Ciudad del Este weather history for previous 24 hours

 ConditionsComfort  
Time TempWeatherWind HumidityBarometerVisibility
1:00 AM
Jul 24
59 °FLight rain. Passing clouds.5 mph94%29.86 "HgN/A
12:00 AM59 °FThunderstorms. Passing clouds.12 mph100%N/A4 mi
11:00 PM
Jul 23
61 °FThunderstorms. Passing clouds.7 mph94%N/A4 mi
10:00 PM63 °FThunderstorms. Fog.12 mph94%29.83 "Hg1 mi
9:00 PM63 °FStrong thunderstorms. Fog.6 mph100%29.83 "Hg1 mi
8:00 PM64 °FThunderstorms. Fog.5 mph94%29.83 "Hg2 mi
7:00 PM64 °FThunderstorms. Passing clouds.8 mph94%29.80 "Hg2 mi
6:00 PM66 °FThunderstorms. Passing clouds.21 mph88%29.74 "Hg6 mi
5:00 PM72 °FThunderstorms. Passing clouds.18 mph73%29.71 "Hg6 mi
4:00 PM72 °FScattered clouds.20 mph73%29.65 "HgN/A
3:00 PM73 °FPassing clouds.18 mph69%29.68 "HgN/A
2:00 PM73 °FBroken clouds.18 mph69%29.68 "HgN/A
1:00 PM72 °FPartly sunny.16 mph73%29.74 "HgN/A
12:00 PM70 °FThunderstorms. Partly sunny.14 mph78%29.77 "HgN/A
11:00 AM70 °FThunderstorms. Partly sunny.9 mph78%29.80 "HgN/A
10:00 AM68 °FThunderstorms. Partly sunny.14 mph78%29.80 "HgN/A
9:00 AM64 °FThunderstorms. Overcast.7 mph94%29.86 "Hg2 mi
8:00 AM66 °FThunderstorms. Overcast.10 mph88%29.89 "Hg2 mi
7:00 AM68 °FThunderstorms. Partly sunny.12 mph78%29.83 "Hg5 mi
6:00 AM66 °FThunderstorms. Partly sunny.12 mph88%29.83 "HgN/A
5:00 AM66 °FThunderstorms. Passing clouds.14 mph88%N/AN/A
4:00 AM68 °FThunderstorms. Passing clouds.14 mph83%N/AN/A
Weather by CustomWeather, © 2014

See weather overviewHow to use our weather pages